Lid_Strength_Index
-0 -1 -1 -1 -1 -1 -2 -1 -1 -1 -1 -0 1 2 2 2 2 2 3 3 3 3 3 2 2 2 8 14 14 9 5 6 7 7 9 11 12 12 13 13 13 14 14 13 13 13 14
0 0 -0 -0 -0 -1 -1 -1 -1 -2 -1 -1 0 1 2 2 2 2 2 3 3 3 2 2 2 3 11 15 10 9 8 8 8 9 10 10 11 11 13 14 14 14 14 15 14 14 14
1 1 0 0 0 -0 -0 -1 -1 -1 -1 -1 -0 1 1 1 1 1 2 2 3 3 2 2 2 7 12 14 9 9 8 9 9 9 10 10 10 12 13 15 14 14 16 16 16 15 15
2 2 1 1 1 0 0 0 -0 -0 -0 -1 -1 0 0 1 1 1 2 2 2 3 3 3 2 10 14 9 10 9 9 9 8 9 9 9 10 12 13 13 15 17 17 19 17 16 16
2 2 2 2 1 1 1 1 1 0 0 0 0 -0 -0 -0 0 1 1 2 2 4 3 4 9 12 14 7 10 9 9 10 10 9 9 9 12 14 14 16 18 18 20 20 18 16 17
3 3 2 2 2 2 2 2 1 1 1 1 0 0 0 -0 -0 0 2 3 4 6 7 9 11 15 12 12 11 10 9 9 11 11 11 13 16 18 18 18 20 20 20 20 20 19 18
3 4 3 3 3 2 2 2 2 1 1 1 1 0 0 -0 -0 0 5 10 12 13 12 15 14 14 12 11 9 11 10 10 12 13 16 15 17 19 19 18 18 19 19 20 20 18 19
3 4 4 3 3 3 2 2 2 2 2 1 1 1 0 -0 0 2 8 10 12 11 15 13 12 12 12 10 13 12 10 13 14 17 16 17 19 17 16 16 17 18 19 20 19 18 18
3 3 3 3 4 3 2 2 2 2 1 1 1 0 0 -1 1 6 8 8 7 9 16 14 13 13 12 11 13 13 11 14 16 16 17 18 18 16 16 17 18 19 20 20 20 18 18
2 3 3 2 3 4 4 3 3 3 2 2 1 1 1 0 4 7 9 6 6 8 17 15 15 14 12 12 15 11 11 13 16 17 17 18 17 17 17 18 18 20 18 18 19 19 22
3 2 3 3 3 3 3 4 4 4 3 3 2 1 1 0 4 7 7 5 6 9 20 14 15 11 12 14 14 13 11 14 17 18 18 19 19 18 18 18 18 19 17 18 18 20 20
2 2 2 2 2 2 3 3 3 4 4 4 3 2 2 2 4 5 5 5 6 13 19 16 15 15 15 15 15 14 14 13 15 18 18 19 17 18 18 17 17 17 18 18 20 20 26
3 3 3 3 2 2 2 2 2 3 4 4 4 3 3 2 4 4 4 5 14 18 14 18 17 15 16 17 16 15 17 18 19 20 21 19 19 18 17 18 17 18 21 26 26 27 25
3 3 3 3 3 3 3 3 2 2 3 4 4 3 3 3 3 3 4 10 17 18 19 15 16 16 17 17 17 17 18 19 18 19 20 22 22 19 17 19 19 18 21 25 28 27 26
4 4 4 4 4 4 4 3 3 2 2 3 4 6 5 4 3 4 7 15 16 16 13 16 16 18 18 16 17 17 18 19 17 18 20 22 22 18 17 17 17 19 22 20 28 30 27
4 5 5 5 5 5 5 4 4 3 2 2 8 8 7 4 4 5 10 13 14 10 12 13 16 17 18 18 18 18 18 17 17 17 18 19 23 19 17 17 17 18 18 22 24 28 28
3 4 4 4 4 4 5 5 4 4 3 3 9 11 6 4 4 7 13 12 11 10 11 13 17 18 18 19 17 18 18 16 16 17 17 19 19 21 19 20 20 20 22 23 22 24 27
3 3 4 4 4 4 4 4 5 5 4 5 10 14 6 5 10 11 11 10 8 11 10 12 12 12 14 15 17 18 18 17 15 16 18 18 19 24 21 20 19 18 19 21 24 25 26
4 4 4 4 4 4 4 4 4 4 4 6 12 11 6 6 13 12 11 10 10 12 12 12 12 10 12 13 15 16 17 15 15 17 18 17 22 25 21 20 20 20 19 21 26 26 26
4 3 3 3 3 4 4 4 4 4 4 6 10 16 10 9 10 11 12 12 11 10 11 9 10 11 13 14 14 16 16 15 15 16 14 16 19 21 20 19 20 22 21 21 24 27 27
4 4 4 3 3 4 4 4 4 4 4 7 10 14 13 14 13 12 11 11 12 12 11 10 12 11 12 15 15 16 16 16 15 14 16 18 21 22 21 21 21 21 21 22 23 24 22
3 3 3 3 3 3 4 4 4 4 4 8 12 13 14 18 13 13 12 13 12 12 12 13 12 11 11 14 14 16 15 16 16 16 17 18 20 21 22 21 21 22 21 20 20 21 22
3 3 3 3 3 2 2 3 3 3 3 8 8 9 11 13 17 16 16 14 13 11 11 10 11 12 13 12 12 12 12 13 14 16 17 19 20 21 23 22 23 24 21 20 21 21 20
3 2 2 2 1 1 1 1 0 -0 -0 4 5 7 11 16 14 15 14 13 15 14 15 11 10 10 12 9 10 12 13 13 14 16 15 19 20 22 25 22 24 17 18 18 19 18 19
2 2 1 -1 -2 -2 -2 -2 -2 -2 -2 1 2 4 8 13 12 13 14 14 14 13 14 12 11 9 9 10 14 15 17 16 18 18 17 16 19 24 24 28 21 17 20 20 20 18 17
1 -0 -2 -2 -2 -2 -2 -2 -2 -2 -2 0 2 1 5 9 13 11 13 13 16 15 15 12 12 9 9 11 14 18 20 20 22 20 17 18 18 20 28 26 27 18 20 19 19 20 17
-2 -2 -2 -2 -2 -2 -2 -2 -2 -2 -1 -0 2 0 4 8 7 8 12 14 12 12 14 13 12 11 10 13 15 18 19 21 21 22 22 22 22 23 29 28 24 17 18 18 20 16 18
-2 -2 -2 -2 -2 -2 -2 -2 -2 -2 -2 -0 3 0 3 7 6 5 7 11 11 11 14 11 12 12 13 13 14 15 22 21 22 20 20 21 23 27 27 29 25 18 19 18 15 17 17
-2 -2 -2 -2 -2 -2 -2 -2 -2 -2 -2 -2 3 0 -0 4 6 4 4 5 6 7 9 10 11 12 11 13 14 16 17 21 21 21 18 19 19 22 21 20 17 17 16 15 16 16 16